Location: College Rock
(37.2713°N, 119.1740°W)
Time: 03:27:31
(UTC+00:00)

Cosmos 1758 Rocket - Pass Details

Date: 29 October 2020
Orbit: 601 x 637 km, 82.5° (Epoch: 23 November)

Event Time Altitude Azimuth Distance (km) Brightness Sun altitude
Rises 13:47:13 0° 179° (S) 2,920 7.2 -6.9°
Reaches altitude 10° 13:49:27 10° 177° (S) 2,016 6.4 -6.5°
Maximum altitude 13:53:54 68° 95° (E) 685 4.1 -5.6°
Drops below altitude 10° 13:58:22 10° 13° (NNE) 2,024 6.2 -4.8°
Sets 14:00:37 0° 10° (N) 2,933 7.0 -4.3°
